Location: Codford Saint Peter
(51.1597°N, 2.0531°W)
Time: 12:32:08
(UTC+00:00)

Cosmos 2266 Rocket - Pass Details

Date: 18 September 2020
Orbit: 934 x 1008 km, 82.9° (Epoch: 21 October)

Event Time Altitude Azimuth Distance (km) Brightness Sun altitude
Rises 20:57:07 0° 353° (N) 3,621 7.6 -24.5°
Reaches altitude 10° 20:59:45 10° 359° (N) 2,666 6.8 -24.8°
Maximum altitude 21:05:33 46° 72° (ENE) 1,246 4.3 -25.5°
Enters shadow 21:05:35 46° 73° (ENE) 1,246 4.3 -25.5°
